#timestamp,LO_Frequency,Hit,StdDev 
1633248015.4,286047001.1,Y
1633248035.2,286047001.0,P
1633248055.0,286047001.0,N
1633248055.9,286047001.0,N
1633248075.8,286046998.2,N
1633248095.6,286047001.2,N
1633248115.4,286046999.8,N
1633248135.3,286047002.4,N
1633248155.1,286047002.4,N
1633248175.8,286047002.2,N
1633248195.7,286047001.8,N
1633248215.5,286047002.2,N
1633248235.3,286047004.4,Y
1633248255.2,286047002.3,P
1633248275.0,286047002.3,P
1633248275.9,286047002.3,P
1633248295.8,286047002.7,Y
1633248315.6,286046998.7,P
1633248335.4,286046998.7,N
1633248355.3,286046998.1,N
1633248375.1,286046996.6,N
1633248376.0,286046996.6,N
1633248395.8,286046999.2,N
1633248415.7,286046999.6,N
1633248435.5,286046999.5,N
1633248455.3,286046997.0,N
1633248475.2,286046999.3,N
1633248495.9,286046998.9,N
1633248515.7,286046998.4,N
1633248535.6,286046998.6,N
1633248555.4,286047001.2,N
1633248575.2,286046999.2,N
1633248595.1,286046999.5,N
1633248596.0,286046999.5,N
1633248615.8,286046999.4,N
1633248635.6,286046999.4,N
1633248655.5,286046998.3,N
1633248675.3,286046998.7,N
1633248695.1,286046998.1,N
1633248715.9,286046998.5,N
1633248735.7,286046999.2,N
1633248755.5,286046998.6,N
1633248775.4,286047001.2,N
1633248795.2,286046998.9,N
1633248815.0,286046998.5,N
1633248815.9,286046998.5,N
1633248835.8,286046998.9,N
1633248855.6,286046999.3,N
1633248875.4,286046998.5,N
1633248895.3,286046998.2,N
1633248915.1,286046998.6,N
1633248916.0,286046998.6,N
1633248935.8,286047000.0,N
1633248955.7,286047002.7,Y
1633248975.5,286047002.8,P
1633248995.3,286046999.8,N
1633249015.2,286046999.9,N
1633249035.9,286047000.3,N
1633249055.7,286047000.1,N
1633249075.6,286047001.9,N
1633249095.4,286047002.2,N
1633249115.2,286047002.8,N
1633249135.0,286047000.5,N
1633249136.0,286047000.5,N
1633249155.8,286047002.8,N
1633249175.6,286046999.8,N
1633249195.4,286046999.8,N
1633249215.3,286047000.5,N
1633249235.1,286046999.9,N
1633249255.8,286047000.0,N
1633249275.7,286047002.5,N
1633249295.5,286047001.9,N
1633249315.3,286047001.6,N
1633249335.2,286047001.3,N
1633249355.0,286047004.0,Y
1633249355.9,286047004.0,P
1633249375.7,286047002.3,N
1633249395.6,286046999.7,N
1633249415.4,286047000.2,N
1633249435.2,286047000.4,N
1633249455.1,286047000.6,N
1633249456.0,286047000.6,N
1633249475.8,286046999.9,N
1633249495.6,286047000.1,N
1633249515.5,286047000.4,N
1633249535.3,286047000.6,N
1633249555.1,286047001.9,N
1633249575.9,286047001.4,N
1633249595.7,286047002.1,N
1633249615.5,286047000.1,N
1633249635.4,286047002.5,N
1633249655.2,286046999.8,N
1633249675.0,286047002.5,N
1633249675.9,286047002.5,N
1633249695.8,286047000.6,N
1633249715.6,286047000.2,N
1633249735.4,286047002.8,N
1633249755.3,286046999.8,N
1633249775.1,286047000.0,N
1633249795.8,286047000.3,N
1633249815.7,286047000.7,N
1633249835.5,286047000.2,N
1633249855.3,286047000.6,N
1633249875.2,286047000.3,N
1633249895.0,286047000.6,N
1633249895.9,286047000.6,N
1633249915.7,286047000.1,N
1633249935.6,286047000.9,N
1633249955.4,286046998.2,N
1633249975.2,286047001.1,N
1633249995.1,286047000.9,N
1633249996.0,286047000.9,N
1633250015.8,286047000.9,N
1633250035.6,286047000.5,N
1633250055.5,286046999.7,N
1633250075.3,286047000.0,N
1633250095.1,286047000.0,N
1633250115.9,286047000.0,N
1633250135.7,286047001.0,N
1633250155.5,286047000.0,N
1633250175.4,286047002.8,N
1633250195.2,286047000.1,N
1633250215.0,286047002.8,N
1633250215.9,286047002.8,N
1633250235.8,286047002.6,N
1633250255.6,286046999.7,N
1633250275.4,286047001.0,N
1633250295.3,286047000.2,N
1633250315.1,286047001.6,N
1633250335.8,286047002.0,N
1633250355.7,286047004.4,Y
1633250375.5,286047001.8,P
1633250395.3,286047002.8,P
1633250415.2,286047001.7,N
1633250435.0,286047002.6,Y
1633250435.9,286047002.6,P
1633250455.8,286047001.0,N
1633250475.6,286047000.8,N
1633250495.4,286047000.1,N
1633250515.2,286047000.1,N
1633250535.1,286047001.0,N
1633250536.0,286047001.0,N
1633250555.8,286046998.9,N
1633250575.6,286046998.7,N
1633250595.5,286046999.0,N
1633250615.3,286046998.7,N
1633250635.1,286047000.8,N
1633250655.9,286047000.7,N
1633250675.7,286047000.5,N
1633250695.5,286046998.1,N
1633250715.4,286047000.6,N
1633250735.2,286047000.7,N
1633250755.0,286047000.6,N
1633250756.0,286047000.6,N
1633250775.8,286046998.4,N
1633250795.6,286047000.4,N
1633250815.4,286046998.2,N
1633250835.3,286046998.5,N
1633250855.1,286047001.2,N
1633250875.8,286047000.3,N
1633250895.7,286047000.5,N
1633250915.5,286047001.1,N
1633250935.3,286047000.3,N
1633250955.2,286047001.1,N
1633250975.0,286046999.9,N
1633250975.9,286046999.9,N
1633250995.8,286047001.0,N
1633251015.6,286046998.2,N
1633251035.4,286047000.8,N
1633251055.2,286046999.9,N
1633251075.1,286047001.1,N
1633251076.0,286047001.1,N
1633251095.8,286047000.5,N
1633251115.7,286046998.2,N
1633251135.5,286047001.1,N
1633251155.3,286046998.5,N
1633251175.1,286046998.8,N
1633251195.9,286046997.1,N
1633251215.7,286046996.6,N
1633251235.5,286046996.8,N
1633251255.4,286046997.0,N
1633251275.2,286046997.4,N
1633251295.1,286046995.3,Y
1633251296.0,286046995.3,P
1633251315.8,286046997.6,N
1633251335.6,286046997.4,N
1633251355.5,286046997.5,N
1633251375.3,286046995.3,Y
1633251395.1,286046999.1,P
1633251415.9,286046999.4,N
1633251435.7,286046999.2,N
1633251455.5,286046997.8,N
1633251475.4,286046997.0,Y
1633251495.2,286047001.1,P
1633251515.0,286046998.9,N
1633251515.9,286046998.9,N
1633251535.8,286046996.6,Y
1633251555.6,286046998.5,P
1633251575.4,286047001.2,N
1633251595.3,286046996.5,P
